Regional Weather Roundup
Issued by NWS

Home | Current Version | Previous Version | Text Only | Print | Product List | Glossary Off
Versions: 1 2 3 4 5 6 7 8 9 10 11 12 13 14 15 16 17 18 19 20 21 22 23 24 25 26 27 28 29 30 31 32 33 34 35 36 37 38 39 40 41 42 43 44 45 46 47 48 49 50

952
ASUS44 KLIX 221905
RWRLA
LOUISIANA WEATHER ROUNDUP
NATIONAL WEATHER SERVICE NEW ORLEANS LA
200 PM CDT WED OCT 22 2014

NOTE: "FAIR" INDICATES FEW OR NO CLOUDS BELOW 12,000 FEET WITH NO
      SIGNIFICANT WEATHER AND/OR OBSTRUCTIONS TO VISIBILITY.
      SKY/WX - SKY CONDITION AND SIGNIFICANT WEATHER.
      TMP - AIR TEMPERATURE.    DP   - DEWPOINT TEMPERATURE.
      RH  - RELATIVE HUMIDITY.  PRES - PRESSURE.
      HX  - HEAT INDEX.         WCI  - WIND CHILL INDEX.

*  THESE STATIONS ARE NOT NWS OR FAA STATIONS AND ARE NOT UNDER
   NWS QUALITY CONTROL.

LAZ040-048-061>063-065-066-069-222000-
SOUTHEAST LOUISIANA

CITY           SKY/WX    TMP DP  RH WIND       PRES   REMARKS
N.O. AUDUBON     N/A     81  57  43 MISG        N/A
N.O. INTL ARPT SUNNY     78  54  43 N14       30.04F
N.O. LAKEFRONT SUNNY     78  55  44 N9        30.05F
N.O. DOWNTOWN* FAIR      79  54  41 N7        30.04F
SLIDELL        SUNNY     79  53  40 NE8       30.04F
BATON ROUGE    SUNNY     79  51  37 N7        30.06F
BOOTHVILLE     SUNNY     77  60  55 NE12G18   30.03F
BELLE CHASSE   SUNNY     78  53  41 E14       30.03F
BOGALUSA*      FAIR      80  48  32 E8        30.07F
NEW ROADS*     FAIR      78  54  43 NE8       30.07F
GONZALES*      FAIR      79  56  45 E5        30.05F
HAMMOND*       SUNNY     81  43  26 NE7       30.07F
HOUMA*         SUNNY     79  55  44 NE12      30.04F
PORT FOURCHON* CLEAR     77  61  57 NE17G25   30.05F

$$

LAZ041-044-053-054-222000-
SOUTHWEST LOUISIANA

CITY           SKY/WX    TMP DP  RH WIND       PRES   REMARKS
LAKE CHARLES   SUNNY     80  57  45 NE12      30.06F
LAFAYETTE      SUNNY     78  56  46 VRB7      30.06F
PATTERSON      SUNNY     81  57  44 NE12      30.06F
SALT POINT       N/A     80  58  46 VRB6      30.02F
NEW IBERIA     SUNNY     81  57  43 NE10      30.06F
CHENAULT AIRPK SUNNY     79  57  47 NE12      30.07F

$$

LAZ027-028-222000-
CENTRAL LOUISIANA

CITY           SKY/WX    TMP DP  RH WIND       PRES   REMARKS
FORT POLK      SUNNY     77  56  48 N7        30.08F
ALEXANDRIA INT SUNNY     78  50  37 E9        30.08F
ALEXANDRIA     SUNNY     77  51  40 E7        30.10F

$$

LAZ001-002-222000-
NORTHWEST LOUISIANA

CITY           SKY/WX    TMP DP  RH WIND       PRES   REMARKS
SHREVEPORT     SUNNY     78  49  35 E10       30.12F
BARKSDALE AFB  SUNNY     78  48  34 E8        30.13F
DTN SHREVEPORT SUNNY     76  50  40 E7G18     30.13F

$$

LAZ014-016-222000-
NORTHEAST LOUISIANA

CITY           SKY/WX    TMP DP  RH WIND       PRES   REMARKS
MONROE         SUNNY     77  50  38 NE8G17    30.14F
TALLULAH       SUNNY     76  50  40 N15       30.12F

$$




USA.gov is the U.S. government's official web portal to all federal, state and local government web resources and services.